| time (UTC) | temp F | wind direction | speed MPH | gust MPH | rain 1hr in | rain 24hr in | rain mn in | humidity % | barometer mb |
| 20260906193411 | 59 | 283 | 0.0 | 0.0 | 0.28 | 0.73 | 0.00 | 93 | 1016.7 |
| 20260906190408 | 59 | 166 | 0.0 | 0.0 | 0.26 | 0.58 | 0.00 | 92 | 1016.7 |
| 20260906183411 | 58 | 121 | 0.0 | 0.0 | 0.21 | 0.45 | 0.00 | 92 | 1016.4 |
| 20260906180408 | 59 | 103 | 0.0 | 0.0 | 0.11 | 0.32 | 0.00 | 92 | 1016.4 |
| 20260906173408 | 59 | 98 | 0.0 | 0.0 | 0.04 | 0.24 | 0.00 | 92 | 1016.2 |
| 20260906170408 | 59 | 172 | 0.0 | 0.0 | 0.02 | 0.21 | 0.00 | 91 | 1016.0 |
| 20260906163408 | 59 | 16 | 0.0 | 1.0 | 0.04 | 0.20 | 0.00 | 92 | 1015.6 |
| 20260906160408 | 59 | 356 | 0.0 | 0.0 | 0.06 | 0.19 | 0.00 | 92 | 1015.8 |
| 20260906153408 | 59 | 304 | 0.0 | 0.0 | 0.07 | 0.16 | 0.00 | 91 | 1015.9 |
| 20260906150408 | 59 | 274 | 0.0 | 0.0 | 0.08 | 0.13 | 0.00 | 90 | 1016.2 |
| 20260906143411 | 58 | 146 | 0.0 | 0.0 | 0.08 | 0.09 | 0.00 | 90 | 1016.0 |
| 20260906140408 | 57 | 219 | 0.0 | 0.0 | 0.04 | 0.04 | 0.00 | 84 | 1016.0 |
| 20260906133408 | 61 | 114 | 0.0 | 0.0 | 0.00 | 0.01 | 0.00 | 81 | 1015.3 |
| 20260906130408 | 60 | 82 | 0.0 | 0.0 | 0.01 | 0.01 | 0.00 | 84 | 1015.2 |
| 20260906123408 | 59 | 86 | 0.0 | 0.0 | 0.01 | 0.01 | 0.00 | 81 | 1015.5 |
| 20260906120408 | 59 | 98 | 0.0 | 0.0 | 0.00 | 0.00 | 0.00 | 74 | 1016.0 |
| 20260906113408 | 60 | 87 | 0.0 | 0.0 | 0.00 | 0.00 | 0.00 | 73 | 1016.0 |
| 20260906110408 | 61 | 101 | 0.0 | 0.0 | 0.00 | 0.00 | 0.00 | 67 | 1016.3 |
| 20260906103408 | 61 | 118 | 0.0 | 0.0 | 0.00 | 0.00 | 0.00 | 69 | 1016.5 |
| 20260906100408 | 60 | 91 | 0.0 | 0.0 | 0.00 | 0.00 | 0.00 | 69 | 1017.0 |
| 20260906093408 | 60 | 110 | 0.0 | 0.0 | 0.00 | 0.00 | 0.00 | 68 | 1017.5 |
| 20260906090408 | 60 | 114 | 0.0 | 0.0 | 0.00 | 0.00 | 0.00 | 68 | 1017.8 |
| 20260906083408 | 60 | 98 | 0.0 | 0.0 | 0.00 | 0.00 | 0.00 | 68 | 1018.2 |
| 20260906080408 | 60 | 108 | 0.0 | 0.0 | 0.00 | 0.00 | 0.00 | 66 | 1018.6 |
| 20260906073411 | 60 | 95 | 0.0 | 0.0 | 0.00 | 0.00 | 0.00 | 66 | 1018.7 |
| 20260906070411 | 60 | 89 | 0.0 | 0.0 | 0.00 | 0.00 | 0.00 | 65 | 1019.0 |
| 20260906063408 | 61 | 118 | 0.0 | 0.0 | 0.00 | 0.00 | 0.00 | 63 | 1019.2 |
| 20260906060408 | 61 | 116 | 0.0 | 0.0 | 0.00 | 0.00 | 0.00 | 58 | 1019.7 |
| 20260906053411 | 62 | 101 | 0.0 | 0.0 | 0.00 | 0.00 | 0.00 | 59 | 1020.0 |
| 20260906050408 | 61 | 95 | 0.0 | 0.0 | 0.00 | 0.00 | 0.00 | 55 | 1020.3 |
| 20260906043411 | 62 | 97 | 0.0 | 0.0 | 0.00 | 0.00 | 0.00 | 55 | 1020.6 |
| 20260906040408 | 62 | 114 | 0.0 | 0.0 | 0.00 | 0.00 | 0.00 | 51 | 1020.6 |
| 20260906033408 | 62 | 117 | 0.0 | 0.0 | 0.00 | 0.00 | 0.00 | 49 | 1020.4 |
| 20260906030408 | 63 | 119 | 0.0 | 0.0 | 0.00 | 0.00 | 0.00 | 48 | 1020.3 |
| 20260906023408 | 63 | 162 | 0.0 | 0.0 | 0.00 | 0.00 | 0.00 | 46 | 1020.1 |
| 20260906020408 | 64 | 184 | 0.0 | 0.0 | 0.00 | 0.00 | 0.00 | 44 | 1019.8 |
| 20260906013411 | 65 | 207 | 0.0 | 0.0 | 0.00 | 0.00 | 0.00 | 43 | 1019.6 |
| 20260906010408 | 66 | 176 | 0.0 | 0.0 | 0.00 | 0.00 | 0.00 | 41 | 1019.6 |
| 20260906003411 | 68 | 184 | 0.0 | 0.0 | 0.00 | 0.00 | 0.00 | 38 | 1019.2 |
| 20260906000410 | 70 | 169 | 0.0 | 0.0 | 0.00 | 0.00 | 0.00 | 35 | 1018.8 |
| 20260905233408 | 71 | 173 | 0.0 | 1.0 | 0.00 | 0.00 | 0.00 | 34 | 1018.5 |
| 20260905230408 | 72 | 165 | 0.0 | 1.0 | 0.00 | 0.00 | 0.00 | 32 | 1018.2 |
| 20260905223408 | 72 | 191 | 0.0 | 2.0 | 0.00 | 0.00 | 0.00 | 33 | 1018.1 |
| 20260905220408 | 72 | 203 | 0.0 | 2.0 | 0.00 | 0.00 | 0.00 | 33 | 1018.0 |
| 20260905213408 | 71 | 180 | 0.0 | 2.0 | 0.00 | 0.00 | 0.00 | 32 | 1017.9 |
| 20260905210408 | 70 | 162 | 0.0 | 2.0 | 0.00 | 0.00 | 0.00 | 32 | 1017.7 |
| 20260905203408 | 72 | 211 | 0.0 | 1.0 | 0.00 | 0.00 | 0.00 | 31 | 1017.4 |
| 20260905200408 | 73 | 146 | 0.0 | 1.0 | 0.00 | 0.00 | 0.00 | 32 | 1017.2 |